TimeEST,TemperatureF,Dew PointF,Humidity,Sea Level PressureIn,VisibilityMPH,Wind Direction,Wind SpeedMPH,Gust SpeedMPH,PrecipitationIn,Events,Conditions,WindDirDegrees,DateUTC
12:53 AM,32.0,30.9,96,29.63,5.0,Calm,Calm,-,0.02,,Overcast,0,2012-12-27 05:53:00
1:14 AM,32.0,30.2,93,29.61,2.0,WNW,3.5,-,0.00,Snow,Light Snow,290,2012-12-27 06:14:00
1:44 AM,32.0,30.2,93,29.63,1.5,WNW,4.6,-,0.01,Snow,Light Snow,290,2012-12-27 06:44:00
1:53 AM,32.0,30.9,96,29.68,1.5,WNW,3.5,-,0.01,Snow,Light Snow,300,2012-12-27 06:53:00
2:37 AM,32.0,30.2,93,29.67,2.0,WNW,5.8,-,0.01,Snow,Light Snow,290,2012-12-27 07:37:00
2:47 AM,32.0,30.2,93,29.68,4.0,Variable,6.9,-,0.01,,Overcast,0,2012-12-27 07:47:00
2:53 AM,30.9,28.9,92,29.72,6.0,West,11.5,18.4,0.01,,Overcast,270,2012-12-27 07:53:00
3:23 AM,30.2,28.4,93,29.70,7.0,Variable,4.6,16.1,N/A,,Overcast,0,2012-12-27 08:23:00
3:53 AM,30.9,28.0,89,29.75,6.0,West,11.5,20.7,N/A,,Overcast,280,2012-12-27 08:53:00
4:06 AM,30.2,26.6,86,29.72,6.0,West,10.4,18.4,N/A,,Overcast,270,2012-12-27 09:06:00
4:39 AM,30.2,28.4,93,29.74,5.0,West,9.2,-,N/A,,Overcast,270,2012-12-27 09:39:00
4:53 AM,30.0,28.0,92,29.78,5.0,West,8.1,-,N/A,,Overcast,280,2012-12-27 09:53:00
5:53 AM,30.0,28.0,92,29.81,4.0,WSW,6.9,-,N/A,,Overcast,250,2012-12-27 10:53:00
6:53 AM,30.0,27.0,88,29.85,8.0,West,9.2,23.0,N/A,,Overcast,260,2012-12-27 11:53:00
7:38 AM,30.2,26.6,86,29.86,6.0,West,11.5,23.0,0.00,Snow,Light Snow,260,2012-12-27 12:38:00
7:53 AM,30.0,27.0,88,29.91,6.0,West,11.5,23.0,0.00,Snow,Light Snow,260,2012-12-27 12:53:00
8:44 AM,28.4,26.6,93,29.91,4.0,Variable,5.8,-,0.00,Snow,Light Snow,0,2012-12-27 13:44:00
8:53 AM,28.9,27.0,92,29.95,4.0,Variable,6.9,-,0.00,Snow,Light Snow,0,2012-12-27 13:53:00
9:04 AM,28.4,26.6,93,29.92,9.0,West,10.4,17.3,0.00,Snow,Light Snow,260,2012-12-27 14:04:00
9:53 AM,28.9,26.1,89,29.99,9.0,West,8.1,18.4,0.00,Snow,Light Snow,270,2012-12-27 14:53:00
10:51 AM,28.4,24.8,86,29.97,9.0,West,8.1,17.3,0.00,Snow,Light Snow,280,2012-12-27 15:51:00
10:53 AM,28.9,25.0,85,30.01,9.0,West,11.5,18.4,0.00,Snow,Light Snow,280,2012-12-27 15:53:00
11:53 AM,28.9,25.0,85,30.01,8.0,West,10.4,-,0.00,Snow,Light Snow,270,2012-12-27 16:53:00
12:53 PM,28.9,25.0,85,29.99,9.0,West,5.8,-,0.00,Snow,Light Snow,280,2012-12-27 17:53:00
1:07 PM,28.4,24.8,86,29.96,9.0,West,6.9,-,0.00,Snow,Light Snow,280,2012-12-27 18:07:00
1:39 PM,30.2,24.8,80,29.96,9.0,Variable,5.8,-,0.00,Snow,Light Snow,0,2012-12-27 18:39:00
1:53 PM,30.0,25.0,82,30.00,9.0,Variable,6.9,-,0.00,Snow,Light Snow,0,2012-12-27 18:53:00
2:15 PM,30.2,26.6,86,29.97,9.0,Variable,5.8,-,0.00,Snow,Light Snow,0,2012-12-27 19:15:00
2:53 PM,30.0,26.1,85,30.02,9.0,Variable,6.9,-,0.00,Snow,Light Snow,0,2012-12-27 19:53:00
4:53 PM,30.0,27.0,88,30.07,5.0,Variable,4.6,-,0.00,Snow,Light Snow,0,2012-12-27 21:53:00
5:09 PM,30.2,26.6,86,30.03,6.0,Variable,3.5,-,0.00,Snow,Light Snow,0,2012-12-27 22:09:00
5:24 PM,30.2,26.6,86,30.04,7.0,SW,4.6,-,0.00,Snow,Light Snow,230,2012-12-27 22:24:00
5:43 PM,30.2,26.6,86,30.04,9.0,SW,5.8,-,0.00,Snow,Light Snow,230,2012-12-27 22:43:00
5:53 PM,30.0,27.0,88,30.09,9.0,WSW,4.6,-,0.00,Snow,Light Snow,240,2012-12-27 22:53:00
6:11 PM,30.2,26.6,86,30.05,10.0,Variable,5.8,-,N/A,,Overcast,0,2012-12-27 23:11:00
6:22 PM,30.2,26.6,86,30.06,10.0,WSW,5.8,-,N/A,,Overcast,250,2012-12-27 23:22:00
6:46 PM,30.2,26.6,86,30.07,10.0,WSW,3.5,-,N/A,,Overcast,240,2012-12-27 23:46:00
6:53 PM,30.0,27.0,88,30.11,10.0,West,4.6,-,N/A,,Overcast,270,2012-12-27 23:53:00
7:53 PM,30.0,27.0,88,30.12,10.0,Variable,3.5,-,N/A,,Overcast,0,2012-12-28 00:53:00
8:53 PM,30.0,27.0,88,30.13,8.0,West,5.8,-,N/A,,Overcast,270,2012-12-28 01:53:00
9:23 PM,30.2,26.6,86,30.09,7.0,Variable,3.5,-,N/A,,Overcast,0,2012-12-28 02:23:00
9:53 PM,30.0,27.0,88,30.14,9.0,WNW,5.8,-,N/A,,Overcast,290,2012-12-28 02:53:00
10:20 PM,30.2,26.6,86,30.10,10.0,West,6.9,-,N/A,,Overcast,280,2012-12-28 03:20:00
10:53 PM,30.0,26.1,85,30.14,10.0,West,4.6,-,N/A,,Overcast,270,2012-12-28 03:53:00
11:53 PM,30.0,26.1,85,30.14,10.0,West,4.6,-,N/A,,Overcast,270,2012-12-28 04:53:00